WXM80 ListenWXM80 Stop

You find our weather info also at:

UK Metoffice

WeatherCloud

Weather Underground

Northeastern Weather Network

AWEKAS

Citizen Weather Observer Program (CWOP)

HAMweather, WeatherForYou, PWS Weather


Weather Underground History page Text

Daily Summary for October 20, 2017 Units:  Metric    English   Both
« Previous Day
Next Day »
Daily Weekly Monthly Yearly Custom
  High: Low: Average:
Temperature: 23.1 °C 12.2 °C 16.8 °C
Dew Point: 11.4 °C 5.4 °C 9.4 °C
Humidity: 87 % 32 % 64 %
Wind Speed: 11.9 km/h 0 km/h 2.9 km/h
Wind Gust: 20.4 km/h - -
Wind:- - West
Pressure: 1022.6 hPa 1014.4 hPa -
Precipitation: 0 mm    
Historical Graphs
 
 
Tabular Data for October 20, 2017
Time Temperature Dew Point Pressure Wind Wind Speed Wind Gust Humidity Rainfall Rate (Hourly)
00:04 15.2 °C 10.6 °C 1017.5 hPa South 2.6 km/h 9.3 km/h 74 % 0 mm
00:09 15.2 °C 10.6 °C 1017.8 hPa SW 4.2 km/h 6.4 km/h 74 % 0 mm
00:14 15.1 °C 10.5 °C 1017.5 hPa SW 0.3 km/h 5.6 km/h 74 % 0 mm
00:19 15.1 °C 10.5 °C 1017.5 hPa SW 2.1 km/h 4.8 km/h 74 % 0 mm
00:24 15.1 °C 10.4 °C 1017.8 hPa WSW 3.2 km/h 5.6 km/h 74 % 0 mm
00:29 15.1 °C 10.3 °C 1017.5 hPa SW 1.4 km/h 11.1 km/h 73 % 0 mm
00:34 15.1 °C 10.3 °C 1017.5 hPa WSW 3.9 km/h 7.4 km/h 73 % 0 mm
00:39 15.1 °C 10.4 °C 1017.5 hPa SSW 2.3 km/h 5.6 km/h 74 % 0 mm
00:45 15 °C 10.2 °C 1017.5 hPa SW 1.1 km/h 5.6 km/h 73 % 0 mm
00:50 15 °C 10.2 °C 1017.8 hPa SW 1.6 km/h 1.6 km/h 73 % 0 mm
00:55 15 °C 10.2 °C 1017.5 hPa West 1.1 km/h 5.6 km/h 73 % 0 mm
01:00 15 °C 10.2 °C 1017.5 hPa SW 1 km/h 5.6 km/h 73 % 0 mm
01:05 15 °C 10.2 °C 1017.5 hPa WSW 2.3 km/h 3.7 km/h 73 % 0 mm
01:10 15 °C 10.2 °C 1017.5 hPa SW 5.6 km/h 11.1 km/h 73 % 0 mm
01:15 15 °C 10.2 °C 1017.5 hPa SW 4.8 km/h 9.3 km/h 73 % 0 mm
01:17 15 °C 10.2 °C 1017.5 hPa WSW 1.9 km/h 6.4 km/h 73 % 0 mm
01:22 15 °C 10.2 °C 1017.5 hPa SW 0.8 km/h 3.7 km/h 73 % 0 mm
01:27 15.1 °C 10.3 °C 1017.5 hPa WSW 1.6 km/h 3.7 km/h 73 % 0 mm
01:32 15 °C 10.2 °C 1017.5 hPa West 2.3 km/h 5.6 km/h 73 % 0 mm
01:37 15.1 °C 10.3 °C 1017.5 hPa WSW 1.1 km/h 1.9 km/h 73 % 0 mm
01:43 15.1 °C 10.3 °C 1017.5 hPa SW 0.6 km/h 3.7 km/h 73 % 0 mm
01:48 15 °C 10.2 °C 1017.5 hPa WSW 0.6 km/h 3.7 km/h 73 % 0 mm
01:53 15 °C 10.4 °C 1017.5 hPa WSW 0.3 km/h 3.7 km/h 74 % 0 mm
01:58 15 °C 10.4 °C 1017.5 hPa Calm     74 % 0 mm
02:03 14.9 °C 10.3 °C 1017.5 hPa SW 0.2 km/h 3.7 km/h 74 % 0 mm
02:08 14.9 °C 10.3 °C 1017.5 hPa Calm     74 % 0 mm
02:13 14.8 °C 10.1 °C 1017.5 hPa Calm   1.9 km/h 73 % 0 mm
02:18 14.7 °C 10.1 °C 1017.5 hPa Calm   1.9 km/h 74 % 0 mm
02:23 14.7 °C 10.1 °C 1017.5 hPa WSW 0.2 km/h 1.9 km/h 74 % 0 mm
02:28 14.6 °C 10.2 °C 1017.5 hPa Calm     75 % 0 mm
02:33 14.5 °C 10.1 °C 1017.5 hPa WSW 0.5 km/h 1.9 km/h 75 % 0 mm
02:38 14.4 °C 10.2 °C 1017.5 hPa Calm     76 % 0 mm
02:43 14.3 °C 10.3 °C 1017.5 hPa WSW 1.1 km/h 1.9 km/h 77 % 0 mm
02:48 14.1 °C 10.3 °C 1017.5 hPa WSW 0.6 km/h 1.9 km/h 78 % 0 mm
02:53 13.9 °C 10.2 °C 1017.5 hPa WSW 0.6 km/h 1.6 km/h 78 % 0 mm
02:58 13.8 °C 10.3 °C 1017.5 hPa Calm   1.9 km/h 79 % 0 mm
03:03 13.7 °C 10.2 °C 1017.5 hPa WSW 0.5 km/h 1.9 km/h 79 % 0 mm
03:08 13.7 °C 10.3 °C 1017.5 hPa WSW 0.3 km/h 1.9 km/h 80 % 0 mm
03:13 13.6 °C 10.2 °C 1017.5 hPa WSW 1 km/h 3.2 km/h 80 % 0 mm
03:18 13.5 °C 10.3 °C 1017.5 hPa WSW 0.8 km/h 3.7 km/h 81 % 0 mm
03:24 13.4 °C 10.4 °C 1017.2 hPa SW 2.3 km/h 3.7 km/h 82 % 0 mm
03:29 13.4 °C 10.4 °C 1017.2 hPa SW 0.6 km/h 3.7 km/h 82 % 0 mm
03:34 13.4 °C 10.4 °C 1017.2 hPa SW 0.5 km/h 1.9 km/h 82 % 0 mm
03:39 13.3 °C 10.5 °C 1017.5 hPa SW 1.1 km/h 3.7 km/h 83 % 0 mm
03:44 13.3 °C 10.5 °C 1017.2 hPa SW 0.6 km/h 1.9 km/h 83 % 0 mm
03:49 13.3 °C 10.5 °C 1017.2 hPa Calm   1.9 km/h 83 % 0 mm
03:54 13.3 °C 10.4 °C 1017.5 hPa Calm     83 % 0 mm
03:59 13.3 °C 10.7 °C 1017.2 hPa WSW 1 km/h 3.2 km/h 84 % 0 mm
04:04 13.3 °C 10.7 °C 1017.2 hPa WSW 1.8 km/h 5.6 km/h 84 % 0 mm
04:09 13.3 °C 10.8 °C 1017.5 hPa WSW 3.1 km/h 8 km/h 85 % 0 mm
04:14 13.3 °C 11.1 °C 1017.2 hPa SW 2.7 km/h 5.6 km/h 86 % 0 mm
04:19 13.3 °C 11.1 °C 1017.5 hPa NW 1.3 km/h 3.2 km/h 86 % 0 mm
04:24 13.4 °C 11.3 °C 1017.5 hPa WSW 1.3 km/h 3.2 km/h 87 % 0 mm
04:29 13.4 °C 11.3 °C 1017.5 hPa SSE 2.6 km/h 5.6 km/h 87 % 0 mm
04:30 13.4 °C 11.3 °C 1017.5 hPa South 1.1 km/h 5.6 km/h 87 % 0 mm
04:35 13.5 °C 11.4 °C 1017.5 hPa SSW 4.2 km/h 5.6 km/h 87 % 0 mm
04:40 13.6 °C 11.4 °C 1017.5 hPa SW 4.5 km/h 7.4 km/h 87 % 0 mm
04:45 13.6 °C 11.3 °C 1017.5 hPa WSW 4.2 km/h 8 km/h 86 % 0 mm
04:50 13.6 °C 11.3 °C 1017.5 hPa WSW 2.1 km/h 5.6 km/h 86 % 0 mm
04:55 13.7 °C 11.4 °C 1017.5 hPa SW 7.4 km/h 11.1 km/h 86 % 0 mm
05:00 13.8 °C 11.3 °C 1017.5 hPa SW 3.9 km/h 5.6 km/h 85 % 0 mm
05:05 13.8 °C 11.3 °C 1017.8 hPa West 2.4 km/h 4.8 km/h 85 % 0 mm
05:10 13.9 °C 11.4 °C 1017.8 hPa SW 5 km/h 7.4 km/h 85 % 0 mm
05:15 14 °C 11.3 °C 1017.8 hPa WSW 1.1 km/h 11.1 km/h 84 % 0 mm
05:20 14.1 °C 11.3 °C 1017.8 hPa WSW 3.9 km/h 16.7 km/h 83 % 0 mm
05:25 14.2 °C 11.2 °C 1019.2 hPa WSW 5 km/h 6.4 km/h 82 % 0 mm
05:30 14.3 °C 11.1 °C 1017.8 hPa WSW 1.3 km/h 7.4 km/h 81 % 0 mm
05:35 14.4 °C 11.1 °C 1018.2 hPa West 5 km/h 5.6 km/h 80 % 0 mm
05:40 14.6 °C 10.8 °C 1018.2 hPa WSW 4.5 km/h 5.6 km/h 78 % 0 mm
05:45 14.7 °C 10.9 °C 1018.2 hPa WSW 0.8 km/h 5.6 km/h 78 % 0 mm
05:50 14.8 °C 11.2 °C 1018.2 hPa WSW 4.7 km/h 9.3 km/h 79 % 0 mm
05:51 14.8 °C 11.2 °C 1018.2 hPa WSW 3.2 km/h 9.7 km/h 79 % 0 mm
05:56 14.9 °C 11.3 °C 1018.5 hPa WSW 1.6 km/h 7.4 km/h 79 % 0 mm
06:01 14.9 °C 11.3 °C 1018.5 hPa West 3.2 km/h 11.1 km/h 79 % 0 mm
06:05 14.9 °C 11.2 °C 1018.5 hPa WSW 1.1 km/h 5.6 km/h 78 % 0 mm
06:11 14.9 °C 11.2 °C 1018.5 hPa West 4.8 km/h 12.9 km/h 78 % 0 mm
06:16 14.9 °C 10.9 °C 1018.5 hPa WNW 4.8 km/h 12.9 km/h 77 % 0 mm
06:21 14.9 °C 10.9 °C 1018.5 hPa West 4.8 km/h 11.3 km/h 77 % 0 mm
06:26 14.9 °C 10.9 °C 1018.5 hPa West 1.6 km/h 9.7 km/h 77 % 0 mm
06:31 14.9 °C 10.9 °C 1018.5 hPa West 1.6 km/h 6.4 km/h 77 % 0 mm
06:36 14.9 °C 10.7 °C 1018.5 hPa WSW 2.6 km/h 9.3 km/h 76 % 0 mm
06:41 15 °C 10.6 °C 1018.5 hPa West 3.2 km/h 14.5 km/h 75 % 0 mm
06:46 15 °C 10.6 °C 1018.5 hPa West 4.8 km/h 11.3 km/h 75 % 0 mm
06:51 15 °C 10.4 °C 1018.5 hPa West 3.2 km/h 8 km/h 74 % 0 mm
06:56 15.1 °C 10.4 °C 1018.5 hPa WNW 1.4 km/h 7.4 km/h 74 % 0 mm
07:01 15.1 °C 10.4 °C 1018.5 hPa West 4.3 km/h 5.6 km/h 74 % 0 mm
07:06 15.1 °C 10.4 °C 1018.8 hPa WSW 3.1 km/h 11.1 km/h 74 % 0 mm
07:11 15.1 °C 10.7 °C 1018.8 hPa NW 3.9 km/h 11.1 km/h 75 % 0 mm
07:16 15.1 °C 10.4 °C 1018.8 hPa WNW 5.3 km/h 9.7 km/h 74 % 0 mm
07:18 15 °C 10.4 °C 1018.8 hPa WSW 4.8 km/h 9.3 km/h 74 % 0 mm
07:23 15 °C 10.6 °C 1018.8 hPa WNW 3.7 km/h 7.4 km/h 75 % 0 mm
07:28 15 °C 10.6 °C 1018.8 hPa WSW 6.1 km/h 9.3 km/h 75 % 0 mm
07:33 15 °C 10.6 °C 1019.2 hPa West 6.1 km/h 9.3 km/h 75 % 0 mm
07:38 15 °C 10.6 °C 1019.2 hPa WSW 3.7 km/h 5.6 km/h 75 % 0 mm
07:43 15 °C 10.6 °C 1019.2 hPa WNW 3.9 km/h 5.6 km/h 75 % 0 mm
07:48 15.1 °C 10.7 °C 1019.5 hPa WSW 4.2 km/h 11.1 km/h 75 % 0 mm
07:53 15.1 °C 10.7 °C 1019.5 hPa WNW 4 km/h 7.4 km/h 75 % 0 mm
07:58 15.1 °C 10.7 °C 1019.5 hPa WNW 3.5 km/h 9.3 km/h 75 % 0 mm
08:03 15.2 °C 10.8 °C 1019.9 hPa WSW 6.1 km/h 11.1 km/h 75 % 0 mm
08:08 15.2 °C 10.8 °C 1019.5 hPa West 6.3 km/h 9.3 km/h 75 % 0 mm
08:13 15.2 °C 10.6 °C 1019.9 hPa West 6.1 km/h 14.8 km/h 74 % 0 mm
08:18 15.2 °C 10.8 °C 1019.9 hPa WNW 2.6 km/h 8 km/h 75 % 0 mm
08:23 15.3 °C 10.7 °C 1019.9 hPa WNW 8 km/h 14.8 km/h 74 % 0 mm
08:26 15.3 °C 10.4 °C 1019.9 hPa West 7.7 km/h 14.8 km/h 73 % 0 mm
08:32 15.3 °C 10.3 °C 1019.9 hPa WNW 6.4 km/h 11.1 km/h 72 % 0 mm
08:37 15.3 °C 10.1 °C 1019.9 hPa West 5.3 km/h 14.8 km/h 71 % 0 mm
08:42 15.4 °C 10.2 °C 1019.9 hPa WNW 9.7 km/h 12.9 km/h 71 % 0 mm
08:47 15.5 °C 10.3 °C 1020.2 hPa WNW 2.1 km/h 7.4 km/h 71 % 0 mm
08:52 15.6 °C 10.3 °C 1020.2 hPa NNW 1.8 km/h 7.4 km/h 71 % 0 mm
08:57 15.6 °C 10.4 °C 1020.2 hPa West 2.9 km/h 11.1 km/h 71 % 0 mm
09:02 15.7 °C 10.4 °C 1020.2 hPa WNW 5 km/h 9.3 km/h 71 % 0 mm
09:07 15.7 °C 10.5 °C 1020.2 hPa NW 4.2 km/h 9.3 km/h 71 % 0 mm
09:12 15.8 °C 10.1 °C 1020.5 hPa WSW 2.9 km/h 8 km/h 69 % 0 mm
09:17 15.8 °C 9.9 °C 1020.5 hPa West 3.4 km/h 13 km/h 68 % 0 mm
09:18 15.8 °C 9.9 °C 1020.5 hPa WNW 6.1 km/h 11.1 km/h 68 % 0 mm
09:23 15.9 °C 9.8 °C 1020.5 hPa WNW 9.3 km/h 18.5 km/h 67 % 0 mm
09:28 15.9 °C 9.4 °C 1020.5 hPa WNW 5 km/h 9.7 km/h 65 % 0 mm
09:33 16.1 °C 9.2 °C 1020.5 hPa West 8.5 km/h 18.5 km/h 64 % 0 mm
09:38 16.2 °C 9.4 °C 1020.5 hPa WSW 4.8 km/h 11.3 km/h 64 % 0 mm
09:43 16.3 °C 9.1 °C 1020.9 hPa WNW 3.9 km/h 8 km/h 62 % 0 mm
09:48 16.4 °C 8.9 °C 1020.5 hPa West 7.6 km/h 9.3 km/h 61 % 0 mm
09:53 16.5 °C 8.4 °C 1020.5 hPa North 3.7 km/h 20.4 km/h 59 % 0 mm
09:58 16.7 °C 9.2 °C 1020.5 hPa NNE 3.7 km/h 13 km/h 61 % 0 mm
10:03 16.9 °C 9.6 °C 1020.9 hPa WNW 4.7 km/h 9.3 km/h 62 % 0 mm
10:08 17.2 °C 9.1 °C 1020.5 hPa NW 2.9 km/h 13 km/h 59 % 0 mm
10:14 17.3 °C 9.5 °C 1020.9 hPa WNW 1.3 km/h 13 km/h 60 % 0 mm
10:19 17.4 °C 9.1 °C 1020.9 hPa NW 6 km/h 11.1 km/h 58 % 0 mm
10:24 17.5 °C 8.6 °C 1020.9 hPa NNW 6.6 km/h 13 km/h 56 % 0 mm
10:29 17.5 °C 8.6 °C 1020.9 hPa NW 2.7 km/h 9.3 km/h 56 % 0 mm
10:34 17.6 °C 8.7 °C 1020.5 hPa WNW 3.5 km/h 5.6 km/h 56 % 0 mm
10:39 17.6 °C 9.2 °C 1020.9 hPa NW 6.9 km/h 16.7 km/h 58 % 0 mm
10:44 17.6 °C 9.2 °C 1020.5 hPa WNW 4.7 km/h 14.8 km/h 58 % 0 mm
10:49 17.6 °C 9.5 °C 1020.5 hPa WNW 3.5 km/h 7.4 km/h 59 % 0 mm
10:54 17.6 °C 9.2 °C 1020.5 hPa WNW 5 km/h 9.3 km/h 58 % 0 mm
10:59 17.7 °C 9.3 °C 1020.5 hPa West 8.2 km/h 11.1 km/h 58 % 0 mm
11:04 17.8 °C 9.4 °C 1020.5 hPa WNW 6.1 km/h 11.1 km/h 58 % 0 mm
11:09 17.9 °C 9.5 °C 1020.5 hPa NW 4.5 km/h 9.3 km/h 58 % 0 mm
11:14 18.1 °C 9.4 °C 1020.5 hPa West 4.3 km/h 9.3 km/h 57 % 0 mm
11:19 18.3 °C 9.7 °C 1020.5 hPa West 5.3 km/h 7.4 km/h 57 % 0 mm
11:24 18.8 °C 11.2 °C 1020.2 hPa West 0.5 km/h 3.7 km/h 61 % 0 mm
11:29 19.3 °C 10.3 °C 1020.2 hPa WNW 3.9 km/h 5.6 km/h 56 % 0 mm
11:34 19.7 °C 9.8 °C 1020.2 hPa West 2.4 km/h 9.3 km/h 53 % 0 mm
11:39 20.2 °C 10.6 °C 1019.9 hPa WSW 3.5 km/h 11.1 km/h 54 % 0 mm
11:44 20.6 °C 10.3 °C 1019.9 hPa WSW 5.6 km/h 11.1 km/h 52 % 0 mm
11:49 20.8 °C 9.7 °C 1019.9 hPa WNW 8.5 km/h 9.3 km/h 49 % 0 mm
11:55 21.1 °C 9.9 °C 1019.9 hPa SW 5.6 km/h 11.1 km/h 49 % 0 mm
12:00 21.3 °C 10.2 °C 1019.9 hPa SSW 6.8 km/h 11.3 km/h 49 % 0 mm
12:05 21.5 °C 9.1 °C 1019.5 hPa SSW 11.9 km/h 14.8 km/h 45 % 0 mm
12:10 21.5 °C 8.7 °C 1019.5 hPa WSW 7.7 km/h 11.1 km/h 44 % 0 mm
12:15 21.6 °C 9.5 °C 1019.5 hPa SW 4.2 km/h 9.3 km/h 46 % 0 mm
12:20 21.7 °C 9.3 °C 1019.5 hPa West 4.3 km/h 11.1 km/h 45 % 0 mm
12:25 21.8 °C 8.7 °C 1019.5 hPa WSW 3.1 km/h 7.4 km/h 43 % 0 mm
12:30 21.8 °C 8.3 °C 1019.5 hPa SW 9.7 km/h 16.7 km/h 42 % 0 mm
12:35 21.8 °C 8.3 °C 1019.5 hPa WSW 6.8 km/h 9.7 km/h 42 % 0 mm
12:40 21.7 °C 8.9 °C 1019.5 hPa West 4.2 km/h 6.4 km/h 44 % 0 mm
12:45 21.7 °C 8.6 °C 1019.5 hPa WSW 4.7 km/h 12.9 km/h 43 % 0 mm
12:50 21.8 °C 7.6 °C 1019.2 hPa West 4.3 km/h 16.7 km/h 40 % 0 mm
12:55 21.8 °C 8 °C 1019.2 hPa WNW 5.8 km/h 16.7 km/h 41 % 0 mm
13:00 21.9 °C 9.4 °C 1019.2 hPa West 2.4 km/h 6.4 km/h 45 % 0 mm
13:05 22.2 °C 7.9 °C 1019.2 hPa WSW 1.3 km/h 5.6 km/h 40 % 0 mm
13:10 22.3 °C 8.8 °C 1019.2 hPa West 3.7 km/h 5.6 km/h 42 % 0 mm
13:15 22.5 °C 9.3 °C 1019.2 hPa WNW 5.3 km/h 9.3 km/h 43 % 0 mm
13:20 22.6 °C 7.2 °C 1019.9 hPa West 8.9 km/h 16.7 km/h 37 % 0 mm
13:25 22.7 °C 7.6 °C 1018.8 hPa West 3.1 km/h 5.6 km/h 38 % 0 mm
13:28 22.7 °C 6.8 °C 1018.8 hPa WNW 5.6 km/h 13 km/h 36 % 0 mm
13:33 22.8 °C 6.9 °C 1018.8 hPa WSW 8.7 km/h 13 km/h 36 % 0 mm
13:38 22.8 °C 6.1 °C 1018.8 hPa West 0.5 km/h 9.3 km/h 34 % 0 mm
13:43 22.9 °C 8.2 °C 1018.5 hPa NW 5 km/h 12.9 km/h 39 % 0 mm
13:48 23 °C 8.3 °C 1018.5 hPa West 1.8 km/h 11.1 km/h 39 % 0 mm
13:53 23 °C 5.8 °C 1018.5 hPa West 9.2 km/h 16.7 km/h 33 % 0 mm
13:58 23 °C 6.3 °C 1018.5 hPa West 7.9 km/h 14.8 km/h 34 % 0 mm
14:03 23 °C 7.1 °C 1018.5 hPa West 4.7 km/h 11.1 km/h 36 % 0 mm
14:08 23.1 °C 6.3 °C 1018.5 hPa WSW 9 km/h 16.7 km/h 34 % 0 mm
14:13 23.1 °C 6.3 °C 1018.5 hPa WNW 7.6 km/h 14.8 km/h 34 % 0 mm
14:18 23.1 °C 5.9 °C 1018.5 hPa NW 4 km/h 8 km/h 33 % 0 mm
14:23 23 °C 5.8 °C 1018.5 hPa SW 9 km/h 16.7 km/h 33 % 0 mm
14:28 23 °C 5.4 °C 1018.5 hPa WSW 7.6 km/h 13 km/h 32 % 0 mm
14:33 22.9 °C 5.8 °C 1018.2 hPa North 6.6 km/h 16.7 km/h 33 % 0 mm
14:38 22.9 °C 6.2 °C 1018.5 hPa WNW 6 km/h 9.3 km/h 34 % 0 mm
14:43 22.9 °C 5.8 °C 1019.2 hPa West 5.1 km/h 13 km/h 33 % 0 mm
14:48 22.9 °C 6.2 °C 1019.5 hPa WSW 9.8 km/h 14.5 km/h 34 % 0 mm
14:53 22.9 °C 5.8 °C 1019.2 hPa WSW 3.2 km/h 9.3 km/h 33 % 0 mm
14:58 22.9 °C 6.6 °C 1019.2 hPa West 6.6 km/h 9.3 km/h 35 % 0 mm
15:03 22.8 °C 6.2 °C 1019.2 hPa West 2.9 km/h 18.5 km/h 34 % 0 mm
15:08 22.8 °C 6.5 °C 1019.2 hPa NW 4.5 km/h 13 km/h 35 % 0 mm
15:13 22.6 °C 6.4 °C 1019.2 hPa WSW 8.4 km/h 9.3 km/h 35 % 0 mm
15:18 22.6 °C 6.7 °C 1019.2 hPa WNW 6.3 km/h 11.3 km/h 36 % 0 mm
15:23 22.3 °C 6.6 °C 1019.2 hPa NW 5.6 km/h 11.1 km/h 36 % 0 mm
15:28 22.2 °C 6.8 °C 1019.2 hPa SW 6.3 km/h 9.3 km/h 37 % 0 mm
15:33 22.1 °C 6.3 °C 1019.2 hPa West 3.4 km/h 11.1 km/h 36 % 0 mm
15:38 22 °C 6.2 °C 1019.2 hPa WSW 8.2 km/h 11.3 km/h 36 % 0 mm
15:44 21.9 °C 6.6 °C 1019.2 hPa West 4.8 km/h 5.6 km/h 37 % 0 mm
15:49 21.8 °C 6.4 °C 1019.2 hPa WSW 11.6 km/h 12.9 km/h 37 % 0 mm
15:54 21.7 °C 6.3 °C 1019.2 hPa WSW 8.2 km/h 13 km/h 37 % 0 mm
15:59 21.6 °C 6.7 °C 1019.2 hPa West 6.3 km/h 13 km/h 38 % 0 mm
16:04 21.6 °C 7.4 °C 1019.2 hPa WNW 9.3 km/h 18.5 km/h 40 % 0 mm
16:09 21.4 °C 6.9 °C 1019.2 hPa WSW 1.3 km/h 5.6 km/h 39 % 0 mm
16:14 21.4 °C 6.8 °C 1019.2 hPa WNW 5.3 km/h 9.3 km/h 39 % 0 mm
16:19 21.3 °C 7.2 °C 1019.2 hPa West 4.8 km/h 7.4 km/h 40 % 0 mm
16:24 21.3 °C 7.2 °C 1019.2 hPa SW 3.2 km/h 6.4 km/h 40 % 0 mm
16:29 21.3 °C 7.5 °C 1019.2 hPa WSW 4.5 km/h 7.4 km/h 41 % 0 mm
16:34 21.3 °C 7.5 °C 1019.2 hPa West 3.9 km/h 9.3 km/h 41 % 0 mm
16:35 21.2 °C 7.4 °C 1019.2 hPa WSW 5.3 km/h 6.4 km/h 41 % 0 mm
16:40 21.2 °C 7.4 °C 1019.2 hPa West 4.3 km/h 8 km/h 41 % 0 mm
16:45 21.2 °C 7.4 °C 1019.2 hPa WSW 4.7 km/h 5.6 km/h 41 % 0 mm
16:50 21.1 °C 7 °C 1019.2 hPa WSW 3.7 km/h 9.3 km/h 40 % 0 mm
16:55 21.1 °C 7.3 °C 1019.2 hPa WSW 5.3 km/h 9.7 km/h 41 % 0 mm
17:00 21 °C 7.2 °C 1019.2 hPa West 4 km/h 9.3 km/h 41 % 0 mm
17:05 20.9 °C 7.6 °C 1019.2 hPa Calm   3.7 km/h 42 % 0 mm
17:10 20.9 °C 7.6 °C 1019.2 hPa WNW 2.3 km/h 4.8 km/h 42 % 0 mm
17:15 20.8 °C 8.1 °C 1018.5 hPa WSW 1.3 km/h 5.6 km/h 44 % 0 mm
17:20 20.8 °C 8.1 °C 1018.8 hPa Calm   3.7 km/h 44 % 0 mm
17:25 20.7 °C 8.3 °C 1018.5 hPa WNW 0.2 km/h 3.7 km/h 45 % 0 mm
17:30 20.7 °C 8.3 °C 1018.8 hPa WNW 0.2 km/h   45 % 0 mm
17:36 20.6 °C 8.2 °C 1018.5 hPa WNW 0.2 km/h 1.9 km/h 45 % 0 mm
17:41 20.5 °C 8.1 °C 1018.8 hPa WNW 1.6 km/h 4.8 km/h 45 % 0 mm
17:46 20.4 °C 8.4 °C 1019.5 hPa Calm   3.2 km/h 46 % 0 mm
17:51 20.2 °C 8.6 °C 1018.8 hPa Calm   1.9 km/h 47 % 0 mm
17:55 20.1 °C 8.4 °C 1019.2 hPa WNW 0.2 km/h   47 % 0 mm
18:01 19.9 °C 8.6 °C 1018.8 hPa West 1 km/h 1.9 km/h 48 % 0 mm
18:06 19.8 °C 9.1 °C 1019.2 hPa Calm   4.8 km/h 50 % 0 mm
18:11 19.6 °C 10 °C 1019.2 hPa Calm     54 % 0 mm
18:15 19.2 °C 10.2 °C 1019.2 hPa Calm   1.9 km/h 56 % 0 mm
18:21 18.9 °C 10.2 °C 1019.2 hPa Calm     57 % 0 mm
18:26 18.7 °C 10.3 °C 1019.5 hPa Calm     58 % 0 mm
18:31 18.4 °C 10.1 °C 1019.2 hPa Calm   1.6 km/h 58 % 0 mm
18:36 18.3 °C 9.9 °C 1019.5 hPa Calm     58 % 0 mm
18:41 18.1 °C 9.7 °C 1019.5 hPa West 0.3 km/h   58 % 0 mm
18:46 17.9 °C 10 °C 1019.5 hPa West 1.6 km/h 3.2 km/h 60 % 0 mm
18:51 17.7 °C 10.6 °C 1019.5 hPa Calm   3.2 km/h 63 % 0 mm
18:56 17.5 °C 10.6 °C 1019.9 hPa Calm   4.8 km/h 64 % 0 mm
19:01 17.3 °C 10.7 °C 1019.9 hPa WNW 0.3 km/h 1.9 km/h 65 % 0 mm
19:06 17.2 °C 10.6 °C 1020.2 hPa Calm   3.2 km/h 65 % 0 mm
19:11 17.1 °C 10.7 °C 1020.2 hPa Calm   3.2 km/h 66 % 0 mm
19:16 17 °C 10.6 °C 1020.2 hPa Calm   3.2 km/h 66 % 0 mm
19:21 16.9 °C 10.8 °C 1020.2 hPa NW 1.6 km/h 3.2 km/h 67 % 0 mm
19:26 16.8 °C 10.6 °C 1020.5 hPa WNW 1.6 km/h 3.7 km/h 67 % 0 mm
19:31 16.7 °C 10.5 °C 1020.5 hPa Calm   1.6 km/h 67 % 0 mm
19:36 16.6 °C 10.4 °C 1020.5 hPa Calm   3.2 km/h 67 % 0 mm
19:41 16.4 °C 10.5 °C 1020.5 hPa Calm     68 % 0 mm
19:46 16.3 °C 10.2 °C 1020.2 hPa Calm   3.2 km/h 67 % 0 mm
19:51 16.2 °C 9.9 °C 1020.2 hPa Calm   3.2 km/h 66 % 0 mm
19:56 16.2 °C 9.8 °C 1020.2 hPa Calm   1.6 km/h 66 % 0 mm
20:01 16.1 °C 10.2 °C 1020.5 hPa NW 0.5 km/h 1.6 km/h 68 % 0 mm
20:06 15.9 °C 10.3 °C 1020.5 hPa NW 1.4 km/h 1.9 km/h 69 % 0 mm
20:11 15.8 °C 10.3 °C 1020.5 hPa NW 2.1 km/h 3.7 km/h 70 % 0 mm
20:16 15.6 °C 10.2 °C 1020.5 hPa Calm     70 % 0 mm
20:21 15.5 °C 9.8 °C 1020.2 hPa Calm     69 % 0 mm
20:26 15.3 °C 9.9 °C 1020.5 hPa Calm     70 % 0 mm
20:31 15.2 °C 9.7 °C 1020.5 hPa Calm     70 % 0 mm
20:36 15.1 °C 9.6 °C 1020.5 hPa NW 0.6 km/h 1.9 km/h 70 % 0 mm
20:41 14.9 °C 9.7 °C 1020.5 hPa Calm     71 % 0 mm
20:46 14.7 °C 9.7 °C 1020.5 hPa NW 1.4 km/h 3.2 km/h 72 % 0 mm
20:51 14.6 °C 9.8 °C 1020.5 hPa NW 0.8 km/h 1.9 km/h 73 % 0 mm
20:52 14.6 °C 9.8 °C 1020.5 hPa NW 0.8 km/h 1.9 km/h 73 % 0 mm
20:57 14.5 °C 9.9 °C 1020.5 hPa Calm     74 % 0 mm
21:02 14.3 °C 9.9 °C 1020.5 hPa Calm     75 % 0 mm
21:07 14.2 °C 9.8 °C 1020.5 hPa Calm     75 % 0 mm
21:12 14.1 °C 9.9 °C 1020.9 hPa Calm     76 % 0 mm
21:17 13.9 °C 9.8 °C 1020.9 hPa Calm   1.9 km/h 76 % 0 mm
21:22 13.8 °C 9.6 °C 1020.9 hPa NW 0.8 km/h 1.9 km/h 76 % 0 mm
21:27 13.7 °C 9.5 °C 1020.9 hPa Calm     76 % 0 mm
21:32 13.5 °C 9.6 °C 1020.9 hPa NW 0.3 km/h 1.6 km/h 77 % 0 mm
21:37 13.4 °C 9.4 °C 1020.9 hPa Calm     77 % 0 mm
21:42 13.3 °C 9.3 °C 1021.2 hPa Calm     77 % 0 mm
21:47 13.2 °C 9.4 °C 1021.2 hPa Calm     78 % 0 mm
21:53 13.1 °C 9.3 °C 1021.2 hPa Calm   1.9 km/h 78 % 0 mm
21:58 13 °C 9.3 °C 1021.2 hPa NW 0.8 km/h 1.9 km/h 78 % 0 mm
22:03 12.9 °C 9.4 °C 1021.2 hPa NW 0.2 km/h 1.9 km/h 79 % 0 mm
22:07 12.8 °C 9.1 °C 1021.2 hPa NW 0.8 km/h 1.9 km/h 78 % 0 mm
22:13 12.7 °C 9 °C 1021.6 hPa Calm     78 % 0 mm
22:18 12.6 °C 8.9 °C 1021.6 hPa Calm     78 % 0 mm
22:23 12.6 °C 9 °C 1021.6 hPa NW 1.1 km/h 1.9 km/h 79 % 0 mm
22:28 12.5 °C 8.9 °C 1021.6 hPa NW 1.3 km/h 3.7 km/h 79 % 0 mm
22:33 12.4 °C 8.9 °C 1021.9 hPa WNW 1.4 km/h 5.6 km/h 79 % 0 mm
22:38 12.4 °C 9.1 °C 1021.6 hPa SW 0.2 km/h 1.9 km/h 80 % 0 mm
22:43 12.3 °C 9.2 °C 1021.9 hPa SW 1.6 km/h 3.7 km/h 81 % 0 mm
22:48 12.3 °C 9.1 °C 1022.6 hPa Calm     81 % 0 mm
22:53 12.3 °C 9.1 °C 1021.9 hPa Calm     81 % 0 mm
22:58 12.3 °C 9.3 °C 1021.9 hPa SW 0.5 km/h 1.9 km/h 82 % 0 mm
23:03 12.2 °C 9.2 °C 1021.9 hPa SW 1.3 km/h 3.7 km/h 82 % 0 mm
23:08 12.2 °C 9.2 °C 1021.9 hPa SW 0.3 km/h 1.6 km/h 82 % 0 mm
23:13 12.2 °C 9 °C 1021.9 hPa Calm   1.9 km/h 81 % 0 mm
23:19 12.2 °C 8.8 °C 1022.2 hPa Calm   1.9 km/h 80 % 0 mm
23:20 12.2 °C 8.8 °C 1021.9 hPa Calm     80 % 0 mm
23:21 12.2 °C 8.9 °C 1022.2 hPa Calm   1.9 km/h 80 % 0 mm
23:25 12.2 °C 8.8 °C 1021.9 hPa WSW 2.3 km/h 3.7 km/h 80 % 0 mm
23:29 12.2 °C 8.6 °C 1014.4 hPa West 2.4 km/h 5.6 km/h 79 % 0 mm
23:30 12.2 °C 8.7 °C 1022.2 hPa West 0.8 km/h 5.6 km/h 79 % 0 mm
23:35 12.3 °C 8.7 °C 1021.9 hPa WSW 1.9 km/h 3.7 km/h 79 % 0 mm
23:40 12.3 °C 8.8 °C 1022.2 hPa Calm     79 % 0 mm
23:45 12.4 °C 8.9 °C 1022.2 hPa WSW 0.6 km/h 1.9 km/h 79 % 0 mm
23:50 12.4 °C 8.9 °C 1022.2 hPa Calm     79 % 0 mm
23:55 12.5 °C 8.9 °C 1022.2 hPa Calm     79 % 0 mm
Crab Meadow Weather
Compliments of Weather Underground - 3 mb

Script developed by  Jim McMurry - jmcmurry@mwt.net Adapted for the template by  Wim van der Kuil - Leuven-Template.eu

Lightning: The average number of deaths from lightning is more than 100 a year with several more deaths from lightning related fires. Lightning injuries account for 3-5 times than those of lightning deaths.